| time (UTC) | temp C | wind direction | speed KPH | gust KPH | rain 1hr cm | rain 24hr cm | rain mn cm | humidity % | barometer mb |
| 20260505030035 | 20 | 190 | 8.0 | 19.3 | 0.00 | 0.00 | 0.00 | 49 | 1009.3 |
| 20260505024545 | 20 | 213 | 8.0 | 14.5 | 0.00 | 0.00 | 0.00 | 48 | 1009.2 |
| 20260505023040 | 20 | 211 | 9.7 | 17.7 | 0.00 | 0.00 | 0.00 | 48 | 1009.0 |
| 20260505021536 | 21 | 192 | 6.4 | 12.9 | 0.00 | 0.00 | 0.00 | 47 | 1009.1 |
| 20260505020041 | 21 | 205 | 6.4 | 11.3 | 0.00 | 0.00 | 0.00 | 46 | 1009.0 |
| 20260505014559 | 21 | 193 | 4.8 | 9.7 | 0.00 | 0.00 | 0.00 | 45 | 1008.8 |
| 20260505013034 | 21 | 205 | 4.8 | 11.3 | 0.00 | 0.00 | 0.00 | 44 | 1008.7 |
| 20260505011540 | 22 | 182 | 4.8 | 9.7 | 0.00 | 0.00 | 0.00 | 42 | 1008.7 |
| 20260505010033 | 22 | 195 | 9.7 | 19.3 | 0.00 | 0.00 | 0.00 | 41 | 1008.6 |
| 20260505004535 | 22 | 217 | 9.7 | 14.5 | 0.00 | 0.00 | 0.00 | 40 | 1008.5 |
| 20260505003035 | 23 | 183 | 11.3 | 19.3 | 0.00 | 0.00 | 0.00 | 39 | 1008.2 |
| 20260505001542 | 23 | 213 | 11.3 | 19.3 | 0.00 | 0.00 | 0.00 | 38 | 1008.5 |
| 20260505000035 | 23 | 209 | 16.1 | 27.4 | 0.00 | 0.00 | 0.00 | 38 | 1008.5 |
| 20260504234541 | 23 | 159 | 12.9 | 27.4 | 0.00 | 0.00 | 0.00 | 38 | 1008.2 |
| 20260504233035 | 23 | 207 | 12.9 | 22.5 | 0.00 | 0.00 | 0.00 | 37 | 1008.1 |
| 20260504231531 | 24 | 175 | 17.7 | 29.0 | 0.00 | 0.00 | 0.00 | 37 | 1008.0 |
| 20260504230035 | 24 | 217 | 16.1 | 27.4 | 0.00 | 0.00 | 0.00 | 36 | 1007.9 |
| 20260504224538 | 25 | 198 | 11.3 | 22.5 | 0.00 | 0.00 | 0.00 | 36 | 1008.2 |
| 20260504223035 | 25 | 245 | 17.7 | 27.4 | 0.00 | 0.00 | 0.00 | 35 | 1008.1 |
| 20260504221535 | 25 | 235 | 22.5 | 37.0 | 0.00 | 0.00 | 0.00 | 35 | 1008.2 |
| 20260504220034 | 25 | 240 | 12.9 | 25.7 | 0.00 | 0.00 | 0.00 | 35 | 1008.2 |
| 20260504214535 | 25 | 237 | 17.7 | 25.7 | 0.00 | 0.00 | 0.00 | 35 | 1008.3 |
| 20260504213033 | 25 | 161 | 20.9 | 37.0 | 0.00 | 0.00 | 0.00 | 35 | 1008.3 |
| 20260504211539 | 25 | 199 | 17.7 | 41.8 | 0.00 | 0.00 | 0.00 | 34 | 1008.3 |
| 20260504210055 | 24 | 169 | 14.5 | 27.4 | 0.00 | 0.00 | 0.00 | 34 | 1008.2 |
| 20260504204551 | 25 | 76 | 11.3 | 38.6 | 0.00 | 0.00 | 0.00 | 33 | 1008.3 |
| 20260504203041 | 25 | 247 | 12.9 | 32.2 | 0.00 | 0.00 | 0.00 | 33 | 1008.4 |
| 20260504201535 | 24 | 213 | 20.9 | 30.6 | 0.00 | 0.00 | 0.00 | 33 | 1008.6 |
| 20260504200042 | 23 | 190 | 17.7 | 32.2 | 0.00 | 0.00 | 0.00 | 34 | 1008.6 |
| 20260504194539 | 23 | 189 | 20.9 | 33.8 | 0.00 | 0.00 | 0.00 | 35 | 1008.6 |
| 20260504193039 | 25 | 217 | 19.3 | 30.6 | 0.00 | 0.00 | 0.00 | 32 | 1008.9 |
| 20260504191535 | 24 | 208 | 14.5 | 35.4 | 0.00 | 0.00 | 0.00 | 32 | 1008.9 |
| 20260504190035 | 24 | 192 | 17.7 | 38.6 | 0.00 | 0.00 | 0.00 | 32 | 1008.9 |
| 20260504184535 | 24 | 227 | 14.5 | 32.2 | 0.00 | 0.00 | 0.00 | 32 | 1009.4 |
| 20260504183040 | 23 | 202 | 20.9 | 37.0 | 0.00 | 0.00 | 0.00 | 33 | 1009.7 |
| 20260504181534 | 23 | 188 | 20.9 | 30.6 | 0.00 | 0.00 | 0.00 | 32 | 1010.0 |
| 20260504180039 | 23 | 228 | 14.5 | 35.4 | 0.00 | 0.00 | 0.00 | 32 | 1010.2 |
| 20260504174534 | 23 | 252 | 22.5 | 33.8 | 0.00 | 0.00 | 0.00 | 32 | 1010.3 |
| 20260504173046 | 23 | 215 | 16.1 | 27.4 | 0.00 | 0.00 | 0.00 | 32 | 1010.5 |
| 20260504171540 | 22 | 219 | 11.3 | 24.1 | 0.00 | 0.00 | 0.00 | 33 | 1011.0 |
| 20260504081547 | 10 | 153 | 1.6 | 9.7 | 0.00 | 0.00 | 0.00 | 61 | 1013.6 |
| 20260504044532 | 11 | 142 | 0.0 | 0.0 | 0.00 | 0.00 | 0.00 | 65 | 1013.5 |
| 20260504043032 | 10 | 139 | 0.0 | 0.0 | 0.00 | 0.00 | 0.00 | 66 | 1013.4 |
| 20260504041542 | 10 | 126 | 0.0 | 0.0 | 0.00 | 0.00 | 0.00 | 67 | 1013.4 |
| 20260504040039 | 11 | 128 | 0.0 | 0.0 | 0.00 | 0.00 | 0.00 | 66 | 1013.5 |
| 20260504034541 | 11 | 117 | 0.0 | 0.0 | 0.00 | 0.00 | 0.00 | 64 | 1013.5 |
| 20260504033030 | 11 | 117 | 0.0 | 0.0 | 0.00 | 0.00 | 0.00 | 61 | 1013.4 |
| 20260504031535 | 11 | 117 | 0.0 | 0.0 | 0.00 | 0.00 | 0.00 | 60 | 1013.6 |